This is the latest recevied weather packets stored in our database for station/object N5CSU. If no packets are shown the sender has not sent any weather packets the latest 10 day(s).
| Time | Temp. | Humidity | Pressure | Rain* | Wind** | Luminosity | Snow |
|---|---|---|---|---|---|---|---|
| 1788203171 | 37.78° C | 36% | 1016 hPa | 0 mm | - | 30 W/m² | - |
| 1788202869 | 37.78° C | 36% | 1016.1 hPa | 0 mm | - | 255 W/m² | - |
| 1788202565 | 37.78° C | 37% | 1016 hPa | 0 mm | - | 31 W/m² | - |
| 1788202261 | 37.78° C | 37% | 1016.1 hPa | 0 mm | - | 211 W/m² | - |
| 1788201959 | 36.67° C | 38% | 1016 hPa | 0 mm | - | 232 W/m² | - |
| 1788201655 | 36.67° C | 39% | 1016.4 hPa | 0 mm | - | 34 W/m² | - |
| 1788201354 | 37.22° C | 38% | 1016.3 hPa | 0 mm | - | 110 W/m² | - |
| 1788201048 | 37.22° C | 38% | 1016.3 hPa | 0 mm | - | 106 W/m² | - |
| 1788200742 | 37.22° C | 38% | 1016.1 hPa | 0 mm | - | 126 W/m² | - |
| 1788200438 | 37.22° C | 38% | 1016.5 hPa | 0 mm | - | 119 W/m² | - |
| 1788200132 | 37.22° C | 37% | 1016.6 hPa | 0 mm | - | 399 W/m² | - |
| 1788199832 | 37.22° C | 37% | 1016.8 hPa | 0 mm | - | 147 W/m² | - |
| 1788199528 | 37.78° C | 38% | 1016.8 hPa | 0 mm | - | 308 W/m² | - |
| 1788199222 | 37.78° C | 39% | 1017 hPa | 0 mm | - | 500 W/m² | - |
| 1788198917 | 37.22° C | 38% | 1017 hPa | 0 mm | - | 196 W/m² | - |
| 1788198615 | 37.22° C | 40% | 1017.1 hPa | 0 mm | - | 94 W/m² | - |
| 1788198309 | 37.22° C | 39% | 1017.2 hPa | 0 mm | - | 72 W/m² | - |
| 1788198008 | 36.67° C | 39% | 1017.3 hPa | 0 mm | - | 109 W/m² | - |
| 1788197707 | 36.67° C | 41% | 1017.2 hPa | 0 mm | - | 174 W/m² | - |
| 1788197403 | 36.67° C | 40% | 1017.3 hPa | 0 mm | - | 76 W/m² | - |
| 1788197098 | 36.67° C | 41% | 1017.3 hPa | 0 mm | - | 161 W/m² | - |
| 1788196793 | 36.67° C | 41% | 1017.4 hPa | 0 mm | - | 196 W/m² | - |
| 1788196489 | 36.67° C | 41% | 1017.6 hPa | 0 mm | - | 183 W/m² | - |
| 1788196186 | 36.11° C | 42% | 1017.7 hPa | 0 mm | - | 230 W/m² | - |
| 1788195882 | 36.11° C | 41% | 1017.6 hPa | 0 mm | - | 272 W/m² | - |
* Rain latest hour (hover to see other rain measurements)
** Current wind speed in m/s (hover to see current wind gust speed)